COSMOS 1513

Satellite information

Favourite Embed

Satellite Type and Status

PAYLOADIN ORBIT

Key statistics

Satellite COSMOS 1513 at a glance.

Uptime

15347

Days in orbit

Revolutions

≈ 13.7

Per day

Orbit

LEO

Low Earth Orbit

Inclination

82.9

Latest

Satellite identification and parameters

Extended collection of information and parameters for COSMOS 1513.

Object identification

Identified? True

Debris? False

Object name: COSMOS 1513

International designator: 1983-120A

Object number (NORAD): 14546

Object ID (CCSDS): 14546

Country: COMMONWEALTH OF INDEPENDENT STATES (CIS)

Current information (Y/N): Y

RCS size: LARGE

Orbital parameters

Period: 104.769 minutes

Inclination: 82.9393 deg

SMA: 7361.786 km

Apoapsis: 1012.869 km

Periapsis: 954.433 km

RAAN: 11.0225 deg

Eccentricy: 0.00396882

Argument of periapsis: 60.5656 deg

Mean anomaly: 2.0858 deg

Mean motion: 13.74446925 rev/day

Mean motion (dot): 0.00000087 rev/day2

B* drag term: 0.000074818958 1/REarth

Two-line elements (TLE)

Creation date: Dec. 12, 2025, 10:14 a.m.

Reference frame: TEME

Reference center: EARTH

Epoch: Dec. 12, 2025, 3:18 a.m. UTC

TLE line 0: 0 COSMOS 1513

TLE line 1: 1 14546U 83120A 25346.13794067 .00000087 00000-0 74819-4 0 9999

TLE line 2: 2 14546 82.9393 11.0225 0039688 60.5656 2.0858 13.74446925106611

Live tracking on map

Real-time ground track for satellite COSMOS 1513.

In-orbit conjunctions

A list of the most updated potential collisions computed for object COSMOS 1513.

Target Orbit TCA Probability of collision Miss distance Type
FENGYUN 1C DEB SSO 2024-08-01 21:19:58 0.0004360755 207.0 (m) DEBRIS
SL-8 R/B LEO 2024-05-31 23:15:57 0.0002253426 97.0 (m) ROCKET BODY

Associated space launch

Navigation satellite providing location information for the Tsiklon-B navigation system

COSMOS 1513 was lifted into orbit during the mission ‘Kosmos-3M | Parus 40’, on board a Kosmos-3M space rocket.

The launch took place on Dec. 8, 1983, 6:13 a.m. from 132/2.

For more information about the launch, click the button.

Launch to space Kosmos-3M | Parus 40
Kosmos-3M | Parus 40

Agency: N/A

Status: Launch Successful

Launch date: Dec. 8, 1983, 6:13 a.m. UTC

Rocket: Kosmos-3M

Launch pad: 132/2

Location: Plesetsk Cosmodrome, Russian Federation

...

Latest news about this satellite

There are no fresh news available about this satellite. Check back as we update our databases every day.


Newsletter sign-up

Weekly statistics, charts and insights to help you stay on top of the space industry.